When you browse on this site, cookies collect data to enhance your experience and personalize the content and advertising you see.
Visit our Privacy Policy to learn more. By continuing to use the site, you agree to this use of cookies and data.
  • In Romania
  • List of Countries
  • For 7 days
  • Water Temperature
  • Weather Map
  • Weather Widgets
  • user-avatar
    Login

    Hourly Weather Kigoma

    Today, 6 April, Monday

    Time Temperature Precipitation Wind Pressure Humidity
    00:00 +24°C° 0.6 mm 2 mps 692 mmHg 88%
    01:00 +24°C° 0.6 mm 2 mps 692 mmHg 89%
    02:00 +24°C° 0 mm 2 mps 692 mmHg 90%
    03:00 +24°C° 0.7 mm 2 mps 692 mmHg 90%
    04:00 +24°C° 0.7 mm 2 mps 692 mmHg 89%
    05:00 +24°C° 0.7 mm 2 mps 692 mmHg 89%
    06:00 +24°C° 0.7 mm 2 mps 693 mmHg 88%
    07:00 +24°C° 0.7 mm 1 mps 693 mmHg 88%
    08:00 +25°C° 0.7 mm 1 mps 694 mmHg 88%
    09:00 +26°C° 0.1 mm 1 mps 694 mmHg 82%
    10:00 +28°C° 0.1 mm 1 mps 694 mmHg 77%
    11:00 +29°C° 0.1 mm 1 mps 694 mmHg 71%
    12:00 +29°C° 0 mm 1 mps 693 mmHg 70%
    13:00 +30°C° 0 mm 1 mps 692 mmHg 70%
    14:00 +30°C° 0 mm 2 mps 691 mmHg 69%
    15:00 +29°C° 0.3 mm 1 mps 691 mmHg 74%
    16:00 +28°C° 0.3 mm 1 mps 690 mmHg 78%
    17:00 +28°C° 0.3 mm 1 mps 690 mmHg 83%
    18:00 +27°C° 0.1 mm 1 mps 691 mmHg 84%
    19:00 +24°C° 0.1 mm 0 mps 691 mmHg 84%
    20:00 +23°C° 0.1 mm 0 mps 692 mmHg 85%
    21:00 +23°C° 0 mm 0 mps 692 mmHg 85%
    22:00 +25°C° 0 mm 1 mps 693 mmHg 86%
    23:00 +24°C° 0 mm 1 mps 693 mmHg 86%

    Tomorrow, 7 April, Tuesday

    Time Temperature Precipitation Wind Pressure Humidity
    00:00 +24°C° 0.7 mm 1 mps 693 mmHg 87%
    01:00 +24°C° 0.7 mm 1 mps 692 mmHg 88%
    02:00 +24°C° 0.7 mm 1 mps 692 mmHg 90%
    03:00 +24°C° 1.1 mm 2 mps 692 mmHg 90%
    04:00 +24°C° 1.1 mm 2 mps 692 mmHg 90%
    05:00 +24°C° 1.1 mm 3 mps 692 mmHg 91%
    06:00 +24°C° 0.6 mm 2 mps 692 mmHg 89%
    07:00 +24°C° 0.6 mm 2 mps 693 mmHg 87%
    08:00 +24°C° 0.6 mm 2 mps 694 mmHg 85%
    09:00 +25°C° 0.2 mm 2 mps 693 mmHg 84%
    10:00 +25°C° 0.2 mm 2 mps 693 mmHg 83%
    11:00 +26°C° 0.2 mm 2 mps 693 mmHg 82%
    12:00 +27°C° 0 mm 2 mps 692 mmHg 78%
    13:00 +28°C° 0 mm 1 mps 692 mmHg 74%
    14:00 +29°C° 0 mm 1 mps 691 mmHg 70%
    15:00 +28°C° 0 mm 1 mps 691 mmHg 74%
    16:00 +28°C° 0 mm 1 mps 690 mmHg 77%
    17:00 +27°C° 0 mm 1 mps 690 mmHg 80%
    18:00 +26°C° 0 mm 1 mps 691 mmHg 81%
    19:00 +25°C° 0 mm 1 mps 692 mmHg 83%
    20:00 +24°C° 0 mm 1 mps 692 mmHg 85%
    21:00 +24°C° 0 mm 1 mps 692 mmHg 84%
    22:00 +24°C° 0 mm 1 mps 692 mmHg 83%
    23:00 +24°C° 0 mm 1 mps 693 mmHg 82%

    Day after tomorrow, 8 April, Wednesday

    Time Temperature Precipitation Wind Pressure Humidity
    00:00 +24°C° 0 mm 1 mps 692 mmHg 81%
    01:00 +24°C° 0 mm 1 mps 692 mmHg 80%
    02:00 +25°C° 0 mm 1 mps 692 mmHg 78%
    03:00 +24°C° 0 mm 1 mps 692 mmHg 79%
    04:00 +24°C° 0 mm 1 mps 692 mmHg 80%
    05:00 +24°C° 0 mm 1 mps 692 mmHg 81%
    06:00 +25°C° 0 mm 1 mps 692 mmHg 80%
    07:00 +26°C° 0 mm 1 mps 693 mmHg 79%
    08:00 +27°C° 0 mm 1 mps 694 mmHg 78%
    09:00 +28°C° 1.1 mm 1 mps 693 mmHg 77%
    10:00 +29°C° 1.1 mm 1 mps 693 mmHg 76%
    11:00 +29°C° 1.1 mm 1 mps 693 mmHg 75%
    12:00 +29°C° 0.7 mm 1 mps 692 mmHg 77%
    13:00 +29°C° 0.7 mm 1 mps 691 mmHg 78%
    14:00 +28°C° 0.7 mm 1 mps 691 mmHg 80%
    15:00 +28°C° 0.6 mm 1 mps 691 mmHg 81%
    16:00 +25°C° 0.6 mm 0 mps 691 mmHg 82%
    17:00 +25°C° 0.6 mm 0 mps 691 mmHg 83%
    18:00 +24°C° 0.4 mm 0 mps 691 mmHg 83%
    19:00 +26°C° 0.4 mm 1 mps 692 mmHg 83%
    20:00 +25°C° 0.4 mm 1 mps 692 mmHg 83%
    21:00 +25°C° 0.7 mm 2 mps 692 mmHg 84%
    22:00 +24°C° 0.7 mm 3 mps 693 mmHg 86%
    23:00 +24°C° 0.7 mm 3 mps 693 mmHg 88%

    9 April, Thursday

    Time Temperature Precipitation Wind Pressure Humidity
    00:00 +22°C° 0.5 mm 4 mps 692 mmHg 88%
    01:00 +22°C° 0.5 mm 4 mps 692 mmHg 89%
    02:00 +22°C° 0.5 mm 4 mps 692 mmHg 90%
    03:00 +22°C° 0.4 mm 4 mps 692 mmHg 90%
    04:00 +22°C° 0.4 mm 4 mps 692 mmHg 90%
    05:00 +22°C° 0.4 mm 3 mps 692 mmHg 91%
    06:00 +22°C° 0.2 mm 3 mps 693 mmHg 90%
    07:00 +24°C° 0.2 mm 3 mps 693 mmHg 89%
    08:00 +24°C° 0.2 mm 3 mps 694 mmHg 89%
    09:00 +25°C° 0.5 mm 2 mps 694 mmHg 87%
    10:00 +25°C° 0.5 mm 2 mps 694 mmHg 85%
    11:00 +26°C° 0.5 mm 2 mps 694 mmHg 83%
    12:00 +27°C° 0.6 mm 2 mps 693 mmHg 81%
    13:00 +27°C° 0.6 mm 3 mps 692 mmHg 78%
    14:00 +28°C° 0.6 mm 3 mps 692 mmHg 75%
    15:00 +27°C° 0.1 mm 3 mps 691 mmHg 78%
    16:00 +27°C° 0.1 mm 3 mps 691 mmHg 81%
    17:00 +27°C° 0.1 mm 3 mps 691 mmHg 84%
    18:00 +26°C° 0.2 mm 3 mps 691 mmHg 87%
    19:00 +25°C° 0.2 mm 3 mps 691 mmHg 89%
    20:00 +24°C° 0.2 mm 2 mps 691 mmHg 92%
    21:00 +24°C° 0.2 mm 2 mps 692 mmHg 92%
    22:00 +24°C° 0.2 mm 2 mps 692 mmHg 92%
    23:00 +24°C° 0.2 mm 2 mps 692 mmHg 91%

    10 April, Friday

    Time Temperature Precipitation Wind Pressure Humidity
    00:00 +24°C° 1.4 mm 2 mps 692 mmHg 91%
    01:00 +24°C° 1.4 mm 2 mps 692 mmHg 91%
    02:00 +24°C° 1.4 mm 3 mps 691 mmHg 91%
    03:00 +22°C° 1.4 mm 3 mps 692 mmHg 91%
    04:00 +23°C° 1.4 mm 2 mps 692 mmHg 92%
    05:00 +23°C° 1.4 mm 2 mps 692 mmHg 92%
    06:00 +23°C° 1 mm 2 mps 693 mmHg 91%
    07:00 +22°C° 1 mm 3 mps 693 mmHg 91%
    08:00 +24°C° 1 mm 3 mps 693 mmHg 90%
    09:00 +24°C° 0.5 mm 2 mps 693 mmHg 88%
    10:00 +25°C° 0.5 mm 2 mps 693 mmHg 86%
    11:00 +25°C° 0.5 mm 2 mps 693 mmHg 84%
    12:00 +26°C° 0.9 mm 2 mps 693 mmHg 82%
    13:00 +27°C° 0.9 mm 2 mps 692 mmHg 79%
    14:00 +28°C° 0.9 mm 2 mps 691 mmHg 77%
    15:00 +28°C° 0.5 mm 2 mps 691 mmHg 79%
    16:00 +28°C° 0.5 mm 2 mps 691 mmHg 80%
    17:00 +28°C° 0.5 mm 2 mps 690 mmHg 82%
    18:00 +27°C° 0 mm 2 mps 691 mmHg 84%
    19:00 +25°C° 0 mm 1 mps 691 mmHg 86%
    20:00 +24°C° 0 mm 1 mps 692 mmHg 88%
    21:00 +24°C° 0 mm 1 mps 692 mmHg 88%
    22:00 +23°C° 0 mm 1 mps 692 mmHg 87%
    23:00 +23°C° 0 mm 2 mps 692 mmHg 87%

    11 April, Saturday

    Time Temperature Precipitation Wind Pressure Humidity
    00:00 +21°C° 0.5 mm 2 mps 692 mmHg 88%
    01:00 +21°C° 0.5 mm 2 mps 691 mmHg 88%
    02:00 +21°C° 0.5 mm 2 mps 691 mmHg 89%
    03:00 +21°C° 1.2 mm 2 mps 691 mmHg 90%
    04:00 +21°C° 1.2 mm 3 mps 691 mmHg 91%
    05:00 +21°C° 1.2 mm 3 mps 691 mmHg 92%
    06:00 +22°C° 0.9 mm 3 mps 692 mmHg 90%
    07:00 +24°C° 0.9 mm 3 mps 692 mmHg 89%
    08:00 +25°C° 0.9 mm 3 mps 693 mmHg 88%
    09:00 +26°C° 0.5 mm 3 mps 693 mmHg 83%
    10:00 +27°C° 0.5 mm 2 mps 693 mmHg 77%
    11:00 +29°C° 0.5 mm 2 mps 693 mmHg 72%
    12:00 +29°C° 1.2 mm 2 mps 692 mmHg 73%
    13:00 +29°C° 1.2 mm 2 mps 691 mmHg 74%
    14:00 +29°C° 1.2 mm 2 mps 690 mmHg 75%
    15:00 +28°C° 0.7 mm 2 mps 690 mmHg 78%
    16:00 +28°C° 0.7 mm 1 mps 690 mmHg 81%
    17:00 +28°C° 0.7 mm 1 mps 690 mmHg 84%
    18:00 +27°C° 0.3 mm 1 mps 690 mmHg 85%
    19:00 +26°C° 0.3 mm 1 mps 691 mmHg 86%
    20:00 +25°C° 0.3 mm 1 mps 691 mmHg 87%
    21:00 +24°C° 0.4 mm 2 mps 692 mmHg 88%
    22:00 +24°C° 0.4 mm 2 mps 692 mmHg 89%
    23:00 +24°C° 0.4 mm 2 mps 692 mmHg 90%
    Show more